User: anonymous   Login
Location: Gesvres
(49.0440°N, 2.8518°E)
Time: 16:30:27
(UTC+00:00)
Language:

Cosmos 1536 Rocket - Orbit

View from above orbital plane
View from above orbital plane
View from above satellite
View from above satellite

Ground track
Ground track

The orbit data is extracted from the following two-line orbital elements,

1 14700U 84013B   23151.85209448  .00000473  00000-0  54077-4 0  9991
2 14700  82.5359 284.6994 0019461   1.6217 113.4422 14.83831458102281
Epoch (UTC): 31 May 2023 20:27:00
Eccentricity: 0.0019461
inclination: 82.5359°
perigee height: 603 km
apogee height: 631 km
right ascension of ascending node: 284.6994°
argument of perigee: 1.6217°
revolutions per day: 14.83831458
mean anomaly at epoch: 113.4422°
orbit number at epoch: 10228

The dashed part of the orbit path shows where the satellite is in the earth's shadow,  

DLR